TimeCDT,TemperatureF,Dew PointF,Humidity,Sea Level PressureIn,VisibilityMPH,Wind Direction,Wind SpeedMPH,Gust SpeedMPH,PrecipitationIn,Events,Conditions,WindDirDegrees,DateUTC
12:15 AM,69.8,57.2,64,29.89,10.0,SSE,16.1,-,N/A,,Clear,150,2013-09-27 05:15:00
12:35 AM,69.8,57.2,64,29.89,10.0,SSE,15.0,-,N/A,,Clear,150,2013-09-27 05:35:00
12:55 AM,69.8,57.2,64,29.89,10.0,SSE,16.1,-,N/A,,Clear,150,2013-09-27 05:55:00
1:15 AM,69.8,57.2,64,29.89,10.0,SSE,17.3,-,N/A,,Clear,150,2013-09-27 06:15:00
1:35 AM,69.8,57.2,64,29.89,10.0,SSE,15.0,-,N/A,,Clear,150,2013-09-27 06:35:00
1:55 AM,68.0,57.2,68,29.90,10.0,SSE,15.0,-,N/A,,Clear,160,2013-09-27 06:55:00
2:15 AM,68.0,57.2,68,29.90,10.0,SSE,13.8,-,N/A,,Clear,160,2013-09-27 07:15:00
2:35 AM,66.2,57.2,73,29.89,10.0,SSE,13.8,19.6,N/A,,Clear,150,2013-09-27 07:35:00
2:55 AM,66.2,57.2,73,29.89,10.0,SSE,12.7,-,N/A,,Clear,150,2013-09-27 07:55:00
3:15 AM,66.2,57.2,73,29.88,10.0,SSE,17.3,-,N/A,,Clear,150,2013-09-27 08:15:00
3:35 AM,68.0,57.2,68,29.88,10.0,SSE,16.1,21.9,N/A,,Clear,160,2013-09-27 08:35:00
3:55 AM,68.0,59.0,73,29.87,10.0,SSE,16.1,-,N/A,,Clear,150,2013-09-27 08:55:00
4:15 AM,68.0,59.0,73,29.88,10.0,SSE,16.1,-,N/A,,Clear,160,2013-09-27 09:15:00
4:35 AM,68.0,57.2,68,29.86,10.0,SSE,19.6,-,N/A,,Clear,150,2013-09-27 09:35:00
4:55 AM,68.0,57.2,68,29.87,10.0,SSE,19.6,25.3,N/A,,Clear,160,2013-09-27 09:55:00
5:15 AM,68.0,57.2,68,29.88,10.0,SSE,16.1,25.3,N/A,,Partly Cloudy,150,2013-09-27 10:15:00
5:35 AM,68.0,57.2,68,29.88,10.0,SSE,17.3,24.2,N/A,,Partly Cloudy,160,2013-09-27 10:35:00
5:55 AM,68.0,57.2,68,29.87,10.0,SSE,19.6,25.3,N/A,,Partly Cloudy,160,2013-09-27 10:55:00
6:15 AM,68.0,59.0,73,29.87,10.0,SSE,20.7,24.2,N/A,,Clear,160,2013-09-27 11:15:00
6:35 AM,69.8,59.0,68,29.87,10.0,SSE,20.7,26.5,N/A,,Clear,160,2013-09-27 11:35:00
6:55 AM,69.8,57.2,64,29.86,10.0,SSE,17.3,-,N/A,,Clear,160,2013-09-27 11:55:00
7:15 AM,69.8,57.2,64,29.89,10.0,South,15.0,25.3,N/A,,Scattered Clouds,170,2013-09-27 12:15:00
7:35 AM,69.8,57.2,64,29.90,10.0,SSE,15.0,23.0,N/A,,Mostly Cloudy,160,2013-09-27 12:35:00
7:55 AM,68.0,59.0,73,29.90,10.0,SSE,18.4,23.0,N/A,,Mostly Cloudy,160,2013-09-27 12:55:00
8:15 AM,68.0,59.0,73,29.89,10.0,SSE,17.3,-,N/A,,Mostly Cloudy,160,2013-09-27 13:15:00
8:35 AM,69.8,59.0,68,29.88,10.0,SSE,17.3,24.2,N/A,,Partly Cloudy,160,2013-09-27 13:35:00
8:55 AM,69.8,59.0,68,29.87,10.0,SSE,20.7,25.3,N/A,,Clear,150,2013-09-27 13:55:00
9:15 AM,71.6,57.2,60,29.87,10.0,SSE,21.9,26.5,N/A,,Mostly Cloudy,150,2013-09-27 14:15:00
9:35 AM,69.8,59.0,68,29.87,10.0,SSE,19.6,27.6,N/A,,Overcast,160,2013-09-27 14:35:00
9:55 AM,69.8,60.8,73,29.87,10.0,South,16.1,23.0,N/A,,Overcast,170,2013-09-27 14:55:00
10:15 AM,69.8,60.8,73,29.88,10.0,South,20.7,26.5,N/A,,Mostly Cloudy,170,2013-09-27 15:15:00
10:35 AM,71.6,59.0,64,29.87,10.0,SSE,23.0,29.9,N/A,,Mostly Cloudy,160,2013-09-27 15:35:00
10:55 AM,71.6,59.0,64,29.87,10.0,SSE,19.6,25.3,N/A,,Mostly Cloudy,160,2013-09-27 15:55:00
11:15 AM,71.6,59.0,64,29.85,10.0,SE,20.7,26.5,N/A,,Overcast,140,2013-09-27 16:15:00
11:35 AM,71.6,59.0,64,29.84,10.0,SSE,16.1,-,N/A,,Scattered Clouds,150,2013-09-27 16:35:00
11:55 AM,73.4,59.0,61,29.85,10.0,SSE,16.1,21.9,N/A,,Clear,160,2013-09-27 16:55:00
12:15 PM,75.2,59.0,57,29.85,10.0,SSE,20.7,27.6,N/A,,Clear,160,2013-09-27 17:15:00
12:35 PM,78.8,59.0,51,29.85,10.0,SSE,26.5,33.4,N/A,,Clear,160,2013-09-27 17:35:00
12:55 PM,80.6,59.0,48,29.84,10.0,South,25.3,31.1,N/A,,Clear,170,2013-09-27 17:55:00
1:15 PM,82.4,57.2,42,29.84,10.0,South,24.2,29.9,N/A,,Clear,170,2013-09-27 18:15:00
1:35 PM,84.2,57.2,40,29.82,10.0,SSE,29.9,35.7,N/A,,Clear,160,2013-09-27 18:35:00
1:55 PM,84.2,55.4,37,29.81,10.0,South,29.9,36.8,N/A,,Clear,170,2013-09-27 18:55:00
2:15 PM,86.0,55.4,35,29.80,10.0,South,27.6,35.7,N/A,,Clear,170,2013-09-27 19:15:00
2:35 PM,87.8,55.4,33,29.81,10.0,South,29.9,36.8,N/A,,Clear,170,2013-09-27 19:35:00
2:55 PM,87.8,55.4,33,29.81,10.0,South,25.3,38.0,N/A,,Clear,170,2013-09-27 19:55:00
3:15 PM,86.0,55.4,35,29.81,10.0,South,27.6,32.2,N/A,,Clear,170,2013-09-27 20:15:00
3:35 PM,86.0,55.4,35,29.80,10.0,South,29.9,36.8,N/A,,Clear,170,2013-09-27 20:35:00
3:55 PM,84.2,55.4,37,29.80,10.0,SSE,28.8,36.8,N/A,,Clear,160,2013-09-27 20:55:00
4:15 PM,84.2,55.4,37,29.81,10.0,South,17.3,31.1,N/A,,Clear,170,2013-09-27 21:15:00
4:35 PM,84.2,55.4,37,29.80,10.0,SSE,27.6,35.7,N/A,,Clear,160,2013-09-27 21:35:00
4:55 PM,84.2,57.2,40,29.81,10.0,SSE,24.2,31.1,N/A,,Clear,160,2013-09-27 21:55:00
5:15 PM,84.2,57.2,40,29.81,10.0,SSE,29.9,34.5,N/A,,Clear,160,2013-09-27 22:15:00
5:35 PM,84.2,57.2,40,29.81,10.0,SSE,26.5,34.5,N/A,,Clear,160,2013-09-27 22:35:00
5:55 PM,82.4,57.2,42,29.82,10.0,SSE,21.9,27.6,N/A,,Partly Cloudy,160,2013-09-27 22:55:00
6:15 PM,82.4,57.2,42,29.82,10.0,SSE,18.4,24.2,N/A,,Partly Cloudy,160,2013-09-27 23:15:00
6:35 PM,82.4,57.2,42,29.82,10.0,SSE,17.3,25.3,N/A,,Scattered Clouds,160,2013-09-27 23:35:00
6:55 PM,80.6,57.2,45,29.81,10.0,SSE,18.4,23.0,N/A,,Scattered Clouds,150,2013-09-27 23:55:00
7:15 PM,80.6,57.2,45,29.82,10.0,SSE,13.8,-,N/A,,Partly Cloudy,160,2013-09-28 00:15:00
7:35 PM,78.8,57.2,47,29.82,10.0,SSE,13.8,-,N/A,,Clear,150,2013-09-28 00:35:00
7:55 PM,78.8,55.4,44,29.81,10.0,SSE,12.7,-,N/A,,Clear,150,2013-09-28 00:55:00
8:15 PM,77.0,55.4,47,29.82,10.0,SSE,12.7,-,N/A,,Clear,150,2013-09-28 01:15:00
8:35 PM,77.0,55.4,47,29.83,10.0,SSE,12.7,20.7,N/A,,Clear,160,2013-09-28 01:35:00
8:55 PM,75.2,55.4,50,29.83,10.0,SSE,15.0,21.9,N/A,,Clear,160,2013-09-28 01:55:00
9:15 PM,75.2,55.4,50,29.84,10.0,SSE,13.8,-,N/A,,Clear,150,2013-09-28 02:15:00
9:35 PM,75.2,55.4,50,29.84,10.0,SSE,16.1,19.6,N/A,,Clear,150,2013-09-28 02:35:00
9:55 PM,73.4,57.2,57,29.84,10.0,SSE,16.1,20.7,N/A,,Clear,150,2013-09-28 02:55:00
10:15 PM,73.4,57.2,57,29.83,10.0,SSE,17.3,-,N/A,,Clear,150,2013-09-28 03:15:00
10:35 PM,73.4,57.2,57,29.83,10.0,SSE,17.3,23.0,N/A,,Clear,150,2013-09-28 03:35:00
10:55 PM,73.4,57.2,57,29.83,10.0,SSE,16.1,21.9,N/A,,Clear,150,2013-09-28 03:55:00
11:15 PM,71.6,57.2,60,29.82,10.0,SSE,17.3,23.0,N/A,,Clear,150,2013-09-28 04:15:00
11:35 PM,71.6,57.2,60,29.81,10.0,SSE,16.1,21.9,N/A,,Clear,150,2013-09-28 04:35:00
11:55 PM,71.6,57.2,60,29.80,10.0,SSE,17.3,23.0,N/A,,Clear,150,2013-09-28 04:55:00